AirNav   Bose ProFlight Series 2 Headset
 
 1162 users online  

1D6 Hector Municipal Airport
Hector, Minnesota, USA

GOING TO HECTOR?


FAA INFORMATION EFFECTIVE 30 JANUARY 2020

Location

FAA Identifier: 1D6
Lat/Long: 44-43-52.1974N 094-42-49.4513W
44-43.869957N 094-42.824188W
44.7311659,-94.7137365
(estimated)
Elevation: 1078 ft. / 329 m
Variation: 04E (1985)
From city: 1 mile S of HECTOR, MN
Time zone: UTC -6 (UTC -5 during Daylight Saving Time)
Zip code: 55342

Airport Operations

Airport use: Open to the public
Activation date: 03/1942
Control tower: no
ARTCC: MINNEAPOLIS CENTER
FSS: PRINCETON FLIGHT SERVICE STATION
NOTAMs facility: PNM (NOTAM-D service available)
Attendance: UNATTDD
CALL 320-848-2745.
Wind indicator: lighted
Segmented circle: no
Lights: SS-SR

Airport Communications

CTAF/UNICOM: 122.8
WX AWOS-3 at OVL (14 nm W): 119.275 (320-523-5924)
WX AWOS-3 at HCD (16 nm NE): 118.525 (320-587-3343)
WX ASOS at RWF (19 nm SW): 126.575 (507-644-3564)

Nearby radio navigation aids

VOR radial/distance  VOR name  Freq  Var
RWFr041/23.8REDWOOD FALLS VOR/DME113.3007E
DWNr200/24.1DARWIN VORTAC109.0007E
BDHr139/29.1WILLMAR VOR/DME113.7004E

 
NDB name  Hdg/Dist  Freq  Var  ID
GLENCOE263/26.840703EGYL --. -.-- .-..

Airport Services

Fuel available: 100LL
FUEL SVC CALL 320-848-2745.
Parking: tiedowns
Airframe service: NONE
Powerplant service: NONE
Bottled oxygen: NONE
Bulk oxygen: NONE

Runway Information

Runway 12/30

Dimensions: 2776 x 50 ft. / 846 x 15 m
Surface: asphalt, in good condition
Weight bearing capacity: 
Single wheel: 13.0
Double wheel: 18.0
Runway edge lights: non-standard
LGTS MOUNTED IN YELLOW CONES.
RUNWAY 12  RUNWAY 30
Latitude: 44-44.006167N44-43.738333N
Longitude: 094-42.973333W094-42.454500W
Elevation: 1078.0 ft.1077.0 ft.
Traffic pattern: leftleft
Runway heading: 122 magnetic, 126 true302 magnetic, 306 true
Markings: basic, in good conditionbasic, in good condition
Runway end identifier lights: nono
Touchdown point: yes, no lightsyes, no lights
Obstructions: 15 ft. road, 500 ft. from runway, 150 ft. right of centerline, 20:1 slope to clear17 ft. brush, 521 ft. from runway, 149 ft. left of centerline, 18:1 slope to clear
1 FT CROPS 104 FT R & 103 FT L.

Runway 5/23

Dimensions: 2591 x 165 ft. / 790 x 50 m
Surface: turf, in good condition
Runway edge markings: YELLOW CONES.
Operational restrictions: NOT PLOWED WINTER MONTHS.
RUNWAY 5  RUNWAY 23
Latitude: 44-43.740000N44-43.995000N
Longitude: 094-43.182000W094-42.702667W
Elevation: 1077.0 ft.1076.0 ft.
Traffic pattern: leftleft
Markings: nonenone
Runway end identifier lights: nono
Touchdown point: yes, no lightsyes, no lights

Airport Ownership and Management from official FAA records

Ownership: Publicly-owned
Owner: CITY OF HECTOR
301 MAIN ST
HECTOR, MN 55342
Phone 320-848-2122
Manager: EDGAR NEWBERG
78980 ST HWY 4 SOUTH
HECTOR, MN 55342
Phone 320-848-2745

Airport Operational Statistics

Aircraft based on the field: 32
Single engine airplanes: 27
Helicopters: 1
Ultralights: 4
    
Aircraft operations: avg 134/week *
86% local general aviation
14% transient general aviation
* for 12-month period ending 30 September 2018

Additional Remarks

+8 FT CROPS IN PRIMARY SFC OF ALL RWYS.
FOR CD CTC MINNEAPOLIS ARTCC AT 651-463-5588.

Instrument Procedures

There are no published instrument procedures at 1D6.

Some nearby airports with instrument procedures:

KOVL - Olivia Regional Airport (14 nm W)
KHCD - Hutchinson Municipal Airport-Butler Field (16 nm NE)
KRWF - Redwood Falls Municipal Airport (19 nm SW)
KLJF - Litchfield Municipal Airport (24 nm N)
KULM - New Ulm Municipal Airport (26 nm S)
 
Loc | Ops | Rwys | IFR | FBO | Links
Com | Nav | Svcs | Stats | Notes
Area around 1D6 (Hector Municipal Airport)
 
Road maps at: MapQuest Bing Google
 
Aerial photo
WARNING: Photo may not be current or correct
Aerial photo of 1D6 (Hector Municipal Airport)
Photo by Gary Bipes
Photo taken 16-Sep-2007

Do you have a better or more recent aerial photo of Hector Municipal Airport that you would like to share? If so, please send us your photo.

 
Sectional chart

 
Airport distance calculator
Flying to Hector Municipal Airport? Find the distance to fly.

From to 1D6

Sunrise and sunset
Times for 24-Feb-2020
 Local
(UTC-6)
 Zulu
(UTC)
Morning civil twilight06:3612:36
Sunrise07:0613:06
Sunset17:5823:58
Evening civil twilight18:2800:28

Current date and time
Zulu (UTC)  24-Feb-2020 14:16:04
Local (UTC-6)  24-Feb-2020 08:16:04
 
METAR
KOVL 
14nm W 
241356Z AUTO 06004KT 10SM CLR M06/M07 A2999 RMK AO2
KHCD 
17nm NE 
241355Z AUTO 00000KT 7SM CLR M10/M11 A3000 RMK AO2 T11031112
KRWF 
19nm SW 
241353Z AUTO 08004KT 10SM CLR M04/M07 A2999 RMK AO2 SLP169 T10391067
KLJF 
24nm N 
241356Z AUTO 00000KT 2SM BR M09/M10 A3000 RMK AO2
KULM 
26nm S 
241355Z AUTO 00000KT 10SM CLR M06/M07 A2998 RMK AO2
KGYL 
27nm E 
241359Z AUTO 36004KT 5SM BR CLR M08/M08 A2999 RMK AO2
TAF
KRWF 
19nm SW 
241140Z 2412/2512 VRB03KT P6SM FEW250 FM241900 05007KT P6SM OVC100 FM250900 02008KT P6SM OVC022
NOTAMs
Click for the latest NOTAMs
NOTAMs are issued by the DoD/FAA and will open in a separate window not controlled by AirNav.

 

 
 

FBO, Fuel Providers, and Aircraft Ground Support

  
 Business Name 
 
 Contact 
 
 Services / Description 
 
Fuel Prices
 
Comments
  
Newberg Sky Spray 320-848-2745
no information available

If you are affiliated with Newberg Sky Spray and would like to show here your services, contact info, web link, logo, and more, click here
100LL
SS $4.50 
 Updated 19-Feb-2020
 
   write
SS=Self service
Update Fuel Prices
 

Would you like to see your business listed on this page?

 If your business provides an interesting product or service to pilots, flight crews, aircraft, or users of the Hector Municipal Airport, you should consider listing it here.  To start the listing process, click on the button below
 
Add a business
 

Other Pages about Hector Municipal Airport

Update a link
 
Copyright © AirNav, LLC. All rights reserved. Privacy Policy  Contact